Regional Weather Roundup
Issued by NWS San Diego, CA

Home | Current Version | Previous Version | Text Only | Print | Product List | Glossary On
Versions: 1 2 3 4 5 6 7 8 9 10 11 12 13 14 15 16 17 18 19 20 21 22 23 24 25 26 27 28 29 30 31 32 33 34 35 36 37 38 39 40 41 42 43 44 45 46 47 48 49 50
000
ASUS46 KSGX 012211
RWRSGX

SAN DIEGO HOURLY WEATHER ROUNDUP
NATIONAL WEATHER SERVICE SAN DIEGO CA
300 PM PDT SAT AUG 01 2015

NOTE: "FAIR" INDICATES FEW OR NO CLOUDS BELOW 12,000 FEET WITH NO
SIGNIFICANT WEATHER AND/OR OBSTRUCTIONS TO VISIBILITY.

CAZ042-043-060-061-PZZ750-775-012300-

GREATER SAN DIEGO AREA

CITY           SKY/WX    TMP DP  RH WIND       PRES   REMARKS
LINDBERGH FLD  PTSUNNY   76  62  62 W9        29.94F
POINT LOMA       N/A     75  63  66 W15         N/A
NATIONAL CITY    N/A     76  67  72 SW10      29.93F
CHULA VISTA      N/A     76  67  75 W8        29.86F
IMPERIAL BEACH MOSUNNY  N/A N/A N/A W13       29.94F
BROWN FIELD    MOSUNNY   76  64  66 W8        29.93R
MIRAMAR MCAS   MOSUNNY   78  62  57 W9        29.93F
MONTGOMERY FLD MOSUNNY   78  63  59 W8        29.93F

$$

NORTH SAN DIEGO COUNTY

CITY           SKY/WX    TMP DP  RH WIND       PRES   REMARKS
CAMP PENDLETON MOSUNNY   78  63  59 SW12G17   29.91F
OCEANSIDE AP   MOSUNNY   75  63  66 W8G17     29.92F
OCEANSIDE HBR    N/A     71  66  82 W9        29.95F
CARLSBAD       PTSUNNY   73  64  73 W10       29.93F
DEL MAR          N/A     73  66  79 W3        29.95F
FALLBROOK        N/A     84  65  52 S5        29.90S
ESCONDIDO        N/A     85  68  56 W10       29.92F
POWAY            N/A     85  67  54 SW9       29.92F

$$

EAST SAN DIEGO COUNTY

CITY           SKY/WX    TMP DP  RH WIND       PRES   REMARKS
RAMONA         MOSUNNY   87  65  47 W10       29.94F
SANTEE LAKES     N/A     82  68  61 W9        29.90F
JAMUL            N/A     84  68  58 W2        29.90F
DESCANSO N       N/A     85  59  41 CALM      29.77F
CAMPO            N/A     92  42  17 SW15G22   29.95F

$$

ORANGE COUNTY AND THE LOS ANGELES BASIN

CITY           SKY/WX    TMP DP  RH WIND       PRES   REMARKS
JOHN WAYNE AP  MOSUNNY   78  63  59 SW9       29.91F
LAKE FOREST FR   N/A     85  62  46 SW7       29.80F
SANTA ANA        N/A     85  66  53 CALM      29.86F
HUNTINGTON BCH   N/A     77  67  71 W12       29.94F
LOS ALAMITOS   MOSUNNY   79  65  62 SW12      29.91F
FULLERTON        N/A     82  63  52 S9        29.90F
LONG BEACH     SUNNY     79  61  53 S9        29.91F
L.A. AP        MOSUNNY   74  63  68 W12G22    29.93F
L.A. DOWNTOWN  SUNNY     78  63  59 VRB6      29.91F

$$

THE INLAND EMPIRE

CITY           SKY/WX    TMP DP  RH WIND       PRES   REMARKS
CORONA         SUNNY     88  63  43 W15       29.89F
CHINO          MOSUNNY   94  60  32 W16       29.90F
ONTARIO        MOSUNNY   94  58  29 W15G23    29.89F
SAN BERNARDINO MOSUNNY   93  59  31 SW9       29.90F
RIVERSIDE AP   PTSUNNY   94  58  29 W8        29.89F
MORENO VALLEY    N/A     94  64  35 S7        29.89F HX  96
MARCH ARB      MOSUNNY   92  59  32 NW13      29.92F
HORSETHIEF CYN   N/A     93  53  25 NW6       29.89F
PERRIS           N/A     94  58  30 W2        29.93F
MENIFEE          N/A     98  64  32 SE9       29.94F HX 100
HEMET EAST       N/A     94  47  19 SW3       29.88F
FRENCH VALLEY  FAIR      86  61  42 S12       29.93F
TEMECULA         N/A     86  64  46 SW7       29.87S

$$

SAN BERNARDINO AND RIVERSIDE COUNTY MOUNTAINS

CITY           SKY/WX    TMP DP  RH WIND       PRES   REMARKS
BIG BEAR AP    SUNNY     77  37  24 NE7       30.28F
ANGELUS OAKS     N/A     79  48  33 NW1       29.81F
PINE COVE        N/A     76  53  44 W6        29.88F

$$

SOUTHERN DESERT INCLUDING THE COACHELLA VALLEY

CITY           SKY/WX    TMP DP  RH WIND       PRES   REMARKS
PALM SPRINGS   PTSUNNY  109  43  10 E10       29.80F HX 104
THERMAL        MOSUNNY  106  38   9 SE8       29.73F HX 100
BLYTHE         PTSUNNY  103  59  23 NE17      29.82F HX 103
IMPERIAL AP    MOSUNNY  109  51  14 VRB6      29.74F HX 106
EL CENTRO NAS  PTSUNNY  107  46  13 VRB6      29.76F HX 103
YUMA AZ        MOSUNNY  111  53  14 NE8       29.76F HX 109
MEXICALI       PTSUNNY  108  48  13 SW3       29.76F HX 104

$$

UPPER DESERT

CITY           SKY/WX    TMP DP  RH WIND       PRES   REMARKS
VICTORVILLE AP SUNNY     97  36  11 S14G20    29.98F
HESPERIA         N/A     96  41  14 W10       29.93F
APPLE VALLEY     N/A     95  37  13 SW13G18   30.00F
PALMDALE       SUNNY     97  36  12 SW14G22   29.95F
LANCASTER      SUNNY     99  36  11 S7        29.94F
EDWARDS AFB    MOSUNNY  100  29   8 VRB7      29.91F
DAGGETT        SUNNY    103  37  10 NE10      29.89F HX  97
29 PALMS N     MOSUNNY  100  46  16 SE10      29.97F HX  96
NEEDLES        CLOUDY    95  58  28 VRB3      29.90F

$$

REGIONAL REPORTS

CITY           SKY/WX    TMP DP  RH WIND       PRES   REMARKS
SANTA BARBARA  SUNNY     76  62  62 SW8       29.92F
SANDBERG       SUNNY     91  28  10 SW13G21   30.13F
LAS VEGAS NV   LGT RAIN  83  59  44 CALM      29.99F
PHOENIX AZ     MOSUNNY  101  63  28 S7        29.81F HX 103
TIJUANA        PTSUNNY   75  61  60 W15       29.96S
ENSENADA NW      N/A     74  32  21 W8        29.91F

$$

OFFSHORE ISLANDS

CITY           SKY/WX    TMP DP  RH WIND       PRES   REMARKS
CATALINA ARPT  SUNNY     70  59  68 SW9       29.98F
SAN NICOLAS IS SUNNY    N/A N/A N/A W18       29.95F

$$

MARINE AND OFFSHORE BUOY REPORTS

STATION/POSITION SKY/WX   TEMP    WIND        PRES    SWELL
                          AIR SEA DIR/SP/G            HT/PER/DIR
                          (F)     (DEG/KT/KT) (MB)    (FT/S/D)
TANNER BANKS               66 68  310/ 14/ 17 1014.6F   2/310/14
S CLEMENTE BASIN           67 71  280/ 10/ 14 1013.8F   2/230/15
SAN NICOLAS IS.               66                N/A     2/210/13
SO. S. ROSA ISLA           65 68  320/ 17/ 21 1013.5F   2/14
W. S. BARBARA CH           64 66  310/ 19/ 23 1013.4F   2/150/13
M. S. BARBARA CH           66 71  250/  6/  8 1014.5F
S. MONICA BASIN            70 75  280/  6/  8 1013.3F   2/240/14
S PEDRO CHANNEL               72                N/A     2/170/15
DANA POINT                    72                N/A     2/200/15
OCEANSIDE OFFSHR              73                N/A     2/210/15
TORREY PINES OTR              74                N/A     2/220/14
LA JOLLA 1                 71 71  300/  6/  8 1013.9F
MISSION BAY BUOY              72                N/A     2/210/14
SAN DIEGO BAY                 75              1014.4F
POINT LOMA SOUTH              72                N/A     2/220/13

$$



USA.gov is the U.S. government's official web portal to all federal, state and local government web resources and services.